Change the Weather History Date:

Thursday, August 28, 2014

  Actual Average Record
Temperature  
Mean Temperature 68 °F 65 °F  
Max Temperature 75 °F 75 °F 94 °F (2009)
Min Temperature 60 °F 56 °F 52 °F (2005)
Degree Days  
Heating Degree Days 0 2  
Month to date heating degree days 4 56  
Since 1 June heating degree days 96 242  
Since 1 July heating degree days 25 139  
Cooling Degree Days 3 2  
Month to date cooling degree days 54 22  
Year to date cooling degree days 187 74  
Since 1 June cooling degree days 143 58  
Growing Degree Days 16 (Base 50)    
Moisture  
Dew Point 57 °F    
Average Humidity 74    
Maximum Humidity 90    
Minimum Humidity 57    
Precipitation  
Precipitation 0.00 in 0.01 in 0.01 in (2001)
Month to date precipitation T 0.04  
Year to date precipitation 7.99 13.27  
Since 1 July precipitation 0.01 0.05  
Sea Level Pressure  
Sea Level Pressure 30.03 in    
Wind  
Wind Speed 9 mph (WNW)    
Max Wind Speed 20 mph    
Max Gust Speed 22 mph    
Visibility 10 miles    
Events      
T = Trace of Precipitation, MM = Missing Value Source: NWS Daily Summary

Daily Weather History Graph

Daily Weather History Graph

Search for Another Location

Airport or City:

Trip Planner

Search our weather history database for the weather conditions in past years. The results will help you decide how hot, cold, wet, or windy it might be!

Date:

Astronomy

Aug. 28, 2014 Rise Set
Actual Time 6:35 AM PDT 7:43 PM PDT
Civil Twilight 6:08 AM PDT 8:10 PM PDT
Nautical Twilight 5:36 AM PDT 8:42 PM PDT
Astronomical Twilight 5:02 AM PDT 9:16 PM PDT
Moon 9:29 AM PDT (8/28) 9:15 PM PDT (8/28)
Length of Visible Light 14h 02m
Length of Day
13h 08m
Waxing Crescent, 9% of the Moon is Illuminated
Aug 28
Waxing Crescent
Sep 2
First Quarter
Sep 8
Full
Sep 15
Last Quarter
Sep 23
New

Hourly Weather History & Observations

Time (PDT) Temp. Dew Point Humidity Pressure Visibility Wind Dir Wind Speed Gust Speed Precip Events Conditions
12:53 AM 61.0 °F 55.9 °F 83% 30.07 in 10.0 mi NW 4.6 mph - N/A   Partly Cloudy
1:53 AM 60.1 °F 55.0 °F 83% 30.06 in 10.0 mi Calm Calm - N/A   Partly Cloudy
2:12 AM 60.8 °F 55.4 °F 82% 30.06 in 10.0 mi NW 5.8 mph - N/A   Mostly Cloudy
2:50 AM 60.8 °F 55.4 °F 82% 30.06 in 10.0 mi NNW 5.8 mph - N/A   Scattered Clouds
2:51 AM 61.0 °F 55.9 °F 83% 30.06 in 10.0 mi NNW 6.9 mph - N/A   Scattered Clouds
3:14 AM 60.8 °F 55.4 °F 82% 30.06 in 10.0 mi NW 5.8 mph - N/A   Mostly Cloudy
3:17 AM 60.8 °F 55.4 °F 82% 30.06 in 10.0 mi NW 8.1 mph - N/A   Scattered Clouds
3:53 AM 61.0 °F 57.0 °F 87% 30.06 in 10.0 mi WNW 6.9 mph - N/A   Mostly Cloudy
4:53 AM 62.1 °F 57.0 °F 84% 30.06 in 10.0 mi WNW 6.9 mph - N/A   Overcast
5:53 AM 62.1 °F 55.9 °F 80% 30.06 in 10.0 mi WNW 6.9 mph - N/A   Overcast
6:53 AM 62.1 °F 55.9 °F 80% 30.08 in 10.0 mi Variable 6.9 mph - N/A   Overcast
7:53 AM 63.0 °F 55.9 °F 78% 30.08 in 10.0 mi West 4.6 mph - N/A   Overcast
8:27 AM 62.6 °F 55.4 °F 77% 30.08 in 10.0 mi WSW 5.8 mph - N/A   Overcast
8:53 AM 63.0 °F 55.9 °F 78% 30.08 in 10.0 mi West 6.9 mph - N/A   Overcast
9:53 AM 63.0 °F 57.0 °F 81% 30.08 in 10.0 mi West 4.6 mph - N/A   Overcast
10:32 AM 62.6 °F 55.4 °F 77% 30.08 in 10.0 mi Calm Calm - N/A   Overcast
10:53 AM 63.0 °F 57.0 °F 81% 30.08 in 10.0 mi Calm Calm - N/A   Overcast
11:53 AM 66.9 °F 57.0 °F 70% 30.06 in 10.0 mi West 6.9 mph - N/A   Partly Cloudy
12:53 PM 71.1 °F 57.0 °F 61% 30.03 in 10.0 mi WNW 8.1 mph - N/A   Partly Cloudy
1:53 PM 73.0 °F 57.0 °F 57% 30.01 in 10.0 mi West 11.5 mph - N/A   Clear
2:53 PM 73.9 °F 57.0 °F 55% 29.99 in 10.0 mi WNW 12.7 mph - N/A   Partly Cloudy
3:53 PM 73.9 °F 59.0 °F 59% 29.97 in 10.0 mi WNW 15.0 mph - N/A   Partly Cloudy
4:53 PM 71.1 °F 57.9 °F 63% 29.96 in 10.0 mi WNW 16.1 mph - N/A   Partly Cloudy
5:53 PM 69.1 °F 57.0 °F 65% 29.95 in 10.0 mi West 16.1 mph - N/A   Partly Cloudy
6:53 PM 66.9 °F 57.0 °F 70% 29.94 in 10.0 mi WNW 8.1 mph - N/A   Partly Cloudy
7:53 PM 64.9 °F 57.0 °F 75% 29.95 in 10.0 mi WNW 11.5 mph - N/A   Partly Cloudy
8:53 PM 63.0 °F 57.0 °F 81% 29.97 in 10.0 mi WNW 13.8 mph - N/A   Partly Cloudy
9:53 PM 62.1 °F 57.0 °F 84% 29.98 in 10.0 mi WNW 9.2 mph - N/A   Scattered Clouds
10:43 PM 62.6 °F 57.2 °F 82% 29.98 in 10.0 mi WNW 6.9 mph - N/A   Mostly Cloudy
10:53 PM 62.1 °F 57.0 °F 84% 29.98 in 10.0 mi NW 10.4 mph - N/A   Mostly Cloudy
11:53 PM 62.1 °F 57.0 °F 84% 29.98 in 10.0 mi WNW 10.4 mph - N/A   Overcast